GW5592 Weather Reports


time (UTC)temp
C
wind
direction
speed
KPH
gust
KPH
rain 1hr
cm
rain 24hr
cm
rain mn
cm
humidity
%
barometer
mb
20260507155508 20 212 1.6 8.0 0.00 0.00 0.00 51 1010.3
20260507155010 20 168 1.6 9.7 0.00 0.00 0.00 55 1010.3
20260507154523 20 131 1.6 9.7 0.00 0.00 0.00 58 1010.3
20260507154010 20 199 4.8 9.7 0.00 0.00 0.00 61 1010.4
20260507153508 19 171 1.6 11.3 0.00 0.00 0.00 62 1010.4
20260507153028 19 146 0.0 11.3 0.00 0.00 0.00 64 1010.4
20260507152510 18 180 1.6 11.3 0.00 0.00 0.00 67 1010.4
20260507152009 17 133 0.0 4.8 0.00 0.00 0.00 66 1010.4
20260507151528 17 196 0.0 3.2 0.00 0.00 0.00 70 1010.5
20260507151005 17 136 0.0 3.2 0.00 0.00 0.00 68 1010.5
20260507150506 17 139 0.0 3.2 0.00 0.00 0.00 69 1010.6
20260507150017 17 161 0.0 3.2 0.00 0.00 0.00 69 1010.6
20260507145507 17 138 0.0 3.2 0.00 0.00 0.00 70 1010.6
20260507145013 17 119 1.6 4.8 0.00 0.00 0.00 69 1010.7
20260507144522 16 104 1.6 4.8 0.00 0.00 0.00 72 1010.7
20260507144010 16 96 3.2 4.8 0.00 0.00 0.00 72 1010.8
20260507143508 16 86 1.6 4.8 0.00 0.00 0.00 71 1010.9
20260507143027 16 93 1.6 4.8 0.00 0.00 0.00 71 1010.9
20260507142510 16 96 1.6 3.2 0.00 0.00 0.00 73 1010.9
20260507142011 16 96 1.6 3.2 0.00 0.00 0.00 73 1011.0
20260507141525 15 124 0.0 3.2 0.00 0.00 0.00 73 1011.1
20260507141003 15 138 0.0 3.2 0.00 0.00 0.00 76 1011.2
20260507140506 15 136 0.0 3.2 0.00 0.00 0.00 74 1011.2
20260507140031 15 108 0.0 3.2 0.00 0.00 0.00 71 1011.3
20260507135507 16 181 0.0 4.8 0.00 0.00 0.00 70 1011.3
20260507135011 16 152 0.0 12.9 0.00 0.00 0.00 63 1011.2
20260507134517 16 163 1.6 14.5 0.00 0.00 0.00 61 1011.3
20260507134006 17 273 6.4 14.5 0.00 0.00 0.00 58 1011.2
20260507133509 17 157 4.8 11.3 0.00 0.00 0.00 55 1011.4
20260507133024 17 242 3.2 12.9 0.00 0.00 0.00 54 1011.3
20260507132509 17 302 6.4 16.1 0.00 0.00 0.00 53 1011.3
20260507132009 18 246 6.4 16.1 0.00 0.00 0.00 50 1011.3
20260507131508 18 288 4.8 16.1 0.00 0.00 0.00 52 1011.3
20260507131007 18 323 3.2 17.7 0.00 0.00 0.00 51 1011.4
20260507130507 17 273 9.7 17.7 0.00 0.00 0.00 51 1011.3
20260507130009 17 277 3.2 16.1 0.00 0.00 0.00 55 1011.4
20260507125507 18 296 6.4 16.1 0.00 0.00 0.00 53 1011.5
20260507125006 17 283 6.4 19.3 0.00 0.00 0.00 53 1011.6
20260507124520 17 288 9.7 19.3 0.00 0.00 0.00 54 1011.7
20260507124007 17 271 8.0 17.7 0.00 0.00 0.00 55 1011.7
20260507123510 17 278 8.0 22.5 0.00 0.00 0.00 55 1011.8
20260507123027 17 298 11.3 22.5 0.00 0.00 0.00 57 1011.9
20260507122517 17 234 11.3 22.5 0.00 0.00 0.00 54 1012.0
20260507122011 17 241 6.4 20.9 0.00 0.00 0.00 52 1012.0
20260507121526 17 259 6.4 12.9 0.00 0.00 0.00 54 1012.0
20260507121009 17 207 6.4 11.3 0.00 0.00 0.00 54 1012.0
20260507120510 17 182 4.8 19.3 0.00 0.00 0.00 54 1012.1
20260507120022 17 161 4.8 19.3 0.00 0.00 0.00 54 1012.2
20260507115506 17 218 6.4 16.1 0.00 0.00 0.00 53 1012.3
20260507115005 17 248 6.4 14.5 0.00 0.00 0.00 53 1012.3
20260507114512 17 188 4.8 14.5 0.00 0.00 0.00 50 1012.4
20260507114010 17 244 6.4 20.9 0.00 0.00 0.00 52 1012.5
20260507113508 17 237 8.0 20.9 0.00 0.00 0.00 52 1012.5
20260507113049 17 144 6.4 19.3 0.00 0.00 0.00 53 1012.5
20260507112511 17 184 6.4 16.1 0.00 0.00 0.00 53 1012.5
20260507112011 17 180 6.4 16.1 0.00 0.00 0.00 52 1012.5
20260507111526 16 245 8.0 16.1 0.00 0.00 0.00 53 1012.4
20260507111010 17 266 6.4 16.1 0.00 0.00 0.00 51 1012.5
20260507110508 17 226 4.8 11.3 0.00 0.00 0.00 55 1012.5
20260507110025 16 268 6.4 12.9 0.00 0.00 0.00 54 1012.5
20260507105513 16 271 6.4 12.9 0.00 0.00 0.00 53 1012.5
20260507105003 16 269 8.0 14.5 0.00 0.00 0.00 54 1012.5
20260507104514 16 277 8.0 14.5 0.00 0.00 0.00 54 1012.5
20260507104006 17 234 6.4 11.3 0.00 0.00 0.00 54 1012.6
20260507103507 16 230 3.2 11.3 0.00 0.00 0.00 56 1012.6
20260507103017 16 230 0.0 9.7 0.00 0.00 0.00 56 1012.5
20260507102507 16 242 4.8 12.9 0.00 0.00 0.00 56 1012.5
20260507102009 16 239 3.2 11.3 0.00 0.00 0.00 59 1012.6
20260507101524 15 163 4.8 14.5 0.00 0.00 0.00 60 1012.6
20260507101011 15 182 4.8 16.1 0.00 0.00 0.00 61 1012.6
20260507100509 15 221 8.0 16.1 0.00 0.00 0.00 61 1012.6
20260507100038 15 172 3.2 17.7 0.00 0.00 0.00 61 1012.6
20260507095509 15 164 3.2 17.7 0.00 0.00 0.00 61 1012.6
20260507095011 15 200 3.2 16.1 0.00 0.00 0.00 62 1012.6
20260507094527 15 219 4.8 19.3 0.00 0.00 0.00 62 1012.6
20260507094007 15 229 6.4 19.3 0.00 0.00 0.00 63 1012.6
20260507093503 15 189 1.6 9.7 0.00 0.00 0.00 63 1012.6
20260507093014 15 227 1.6 3.2 0.00 0.00 0.00 64 1012.5
20260507092512 15 183 0.0 3.2 0.00 0.00 0.00 69 1012.6
20260507092007 14 209 0.0 3.2 0.00 0.00 0.00 66 1012.7
20260507091521 14 234 0.0 3.2 0.00 0.00 0.00 66 1012.7
20260507091009 14 234 0.0 3.2 0.00 0.00 0.00 66 1012.7
20260507090510 14 268 1.6 3.2 0.00 0.00 0.00 67 1012.8
20260507090023 14 62 0.0 3.2 0.00 0.00 0.00 68 1012.8
20260507085510 14 317 0.0 3.2 0.00 0.00 0.00 67 1012.8
20260507085010 13 333 1.6 3.2 0.00 0.00 0.00 67 1012.8
20260507084544 14 325 0.0 3.2 0.00 0.00 0.00 1012.8
20260507084015 14 300 0.0 3.2 0.00 0.00 0.00 68 1012.7
20260507083510 14 103 0.0 3.2 0.00 0.00 0.00 68 1012.8
20260507083027 13 117 0.0 4.8 0.00 0.00 0.00 68 1012.7
20260507082506 14 61 0.0 4.8 0.00 0.00 0.00 72 1012.6
20260507082007 14 82 1.6 4.8 0.00 0.00 0.00 73 1012.6
20260507081520 13 51 0.0 3.2 0.00 0.00 0.00 74 1012.7
20260507081010 13 71 0.0 3.2 0.00 0.00 0.00 75 1012.7
20260507080508 12 74 1.6 3.2 0.00 0.00 0.00 75 1012.7
20260507080023 12 5 0.0 3.2 0.00 0.00 0.00 75 1012.7
20260507075508 12 17 0.0 3.2 0.00 0.00 0.00 76 1012.7
20260507075017 12 12 0.0 3.2 0.00 0.00 0.00 75 1012.7
20260507074524 12 88 0.0 3.2 0.00 0.00 0.00 76 1012.7
20260507074010 12 88 0.0 0.0 0.00 0.00 0.00 76 1012.7
20260507073510 12 51 0.0 3.2 0.00 0.00 0.00 77 1012.7
20260507073028 11 38 0.0 3.2 0.00 0.00 0.00 77 1012.7
20260507072513 11 50 0.0 3.2 0.00 0.00 0.00 77 1012.7
20260507072012 11 40 1.6 3.2 0.00 0.00 0.00 78 1012.7
20260507071532 11 24 0.0 3.2 0.00 0.00 0.00 78 1012.7
20260507071008 11 30 0.0 3.2 0.00 0.00 0.00 78 1012.6
20260507070510 10 32 1.6 3.2 0.00 0.00 0.00 78 1012.5
20260507070023 10 25 1.6 3.2 0.00 0.00 0.00 78 1012.5
20260507065506 10 15 0.0 1.6 0.00 0.00 0.00 78 1012.5
20260507065011 10 19 0.0 3.2 0.00 0.00 0.00 78 1012.4
20260507064525 10 23 0.0 3.2 0.00 0.00 0.00 79 1012.4
20260507064009 10 28 0.0 3.2 0.00 0.00 0.00 79 1012.3
20260507063511 10 345 0.0 3.2 0.00 0.00 0.00 78 1012.3
20260507063028 10 21 0.0 3.2 0.00 0.00 0.00 79 1012.3
20260507062511 10 76 0.0 3.2 0.00 0.00 0.00 79 1012.2
20260507062013 9 32 0.0 4.8 0.00 0.00 0.00 79 1012.1
20260507061533 9 31 0.0 4.8 0.00 0.00 0.00 80 1012.1
20260507061012 9 20 0.0 4.8 0.00 0.00 0.00 80 1012.1
20260507060508 8 53 1.6 6.4 0.00 0.00 0.00 80 1012.0
20260507060032 8 38 3.2 6.4 0.00 0.00 0.00 80 1012.0
20260507055509 8 338 0.0 3.2 0.00 0.00 0.00 80 1012.0
20260507055006 8 48 0.0 3.2 0.00 0.00 0.00 79 1012.0
20260507054534 8 27 0.0 4.8 0.00 0.00 0.00 79 1012.0
20260507054009 8 12 1.6 4.8 0.00 0.00 0.00 80 1011.8
20260507053511 8 21 0.0 3.2 0.00 0.00 0.00 80 1011.8
20260507053029 8 360 0.0 0.0 0.00 0.00 0.00 80 1011.6
20260507052509 8 18 0.0 3.2 0.00 0.00 0.00 80 1011.5
20260507052007 8 18 0.0 3.2 0.00 0.00 0.00 80 1011.6
20260507051529 8 13 0.0 3.2 0.00 0.00 0.00 80 1011.5
20260507051011 8 346 0.0 3.2 0.00 0.00 0.00 80 1011.4
20260507050506 8 22 0.0 3.2 0.00 0.00 0.00 80 1011.4
20260507050031 8 350 0.0 4.8 0.00 0.00 0.00 80 1011.3
20260507045508 8 48 0.0 4.8 0.00 0.00 0.00 79 1011.4
20260507045007 8 47 3.2 4.8 0.00 0.00 0.00 79 1011.3
20260507044521 8 36 0.0 3.2 0.00 0.00 0.00 78 1011.3
20260507044007 8 352 0.0 3.2 0.00 0.00 0.00 77 1011.4
20260507043503 8 11 1.6 3.2 0.00 0.00 0.00 77 1011.3
20260507043004 8 9 1.6 3.2 0.00 0.00 0.00 76 1011.4
20260507042508 8 18 1.6 3.2 0.00 0.00 0.00 76 1011.4
20260507042004 9 17 0.0 3.2 0.00 0.00 0.00 76 1011.5
20260507041508 9 11 0.0 3.2 0.00 0.00 0.00 75 1011.4
20260507041003 9 94 0.0 3.2 0.00 0.00 0.00 75 1011.4
20260507040507 9 67 0.0 3.2 0.00 0.00 0.00 75 1011.4
20260507040015 9 37 0.0 3.2 0.00 0.00 0.00 74 1011.4
20260507035506 10 21 0.0 3.2 0.00 0.00 0.00 74 1011.4
20260507035005 10 42 0.0 3.2 0.00 0.00 0.00 74 1011.3
20260507034513 10 42 0.0 3.2 0.00 0.00 0.00 73 1011.3
20260507034010 10 40 0.0 3.2 0.00 0.00 0.00 72 1011.4
20260507033506 10 34 0.0 1.6 0.00 0.00 0.00 73 1011.4
20260507033024 10 329 0.0 0.0 0.00 0.00 0.00 73 1011.4
20260507032504 10 69 0.0 0.0 0.00 0.00 0.00 72 1011.4
20260507032041 10 57 0.0 3.2 0.00 0.00 0.00 72 1011.4
20260507031508 10 5 0.0 6.4 0.00 0.00 0.00 72 1011.4
20260507031003 10 11 1.6 6.4 0.00 0.00 0.00 72 1011.3
20260507030504 10 18 0.0 1.6 0.00 0.00 0.00 72 1011.3
20260507030010 10 360 0.0 1.6 0.00 0.00 0.00 71 1011.2
20260507025508 10 345 1.6 3.2 0.00 0.00 0.00 71 1011.2
20260507025013 10 36 0.0 3.2 0.00 0.00 0.00 70 1011.2
20260507024518 10 38 0.0 0.0 0.00 0.00 0.00 70 1011.1
20260507024004 10 22 0.0 0.0 0.00 0.00 0.00 70 1011.2
20260507023505 10 22 0.0 0.0 0.00 0.00 0.00 70 1011.1
20260507023015 10 22 0.0 0.0 0.00 0.00 0.00 69 1011.1
20260507022507 10 17 0.0 3.2 0.00 0.00 0.00 69 1011.0
20260507022007 11 19 0.0 3.2 0.00 0.00 0.00 68 1011.1
20260507021528 11 43 1.6 3.2 0.00 0.00 0.00 67 1011.1
20260507021007 11 26 0.0 1.6 0.00 0.00 0.00 67 1011.1
20260507020505 11 352 0.0 3.2 0.00 0.00 0.00 68 1011.1
20260507020015 11 352 0.0 3.2 0.00 0.00 0.00 67 1011.1
20260507015506 11 14 0.0 3.2 0.00 0.00 0.00 67 1011.2
20260507015006 11 21 0.0 3.2 0.00 0.00 0.00 67 1011.1
20260507014519 11 20 1.6 3.2 0.00 0.00 0.00 66 1011.1
20260507014010 11 5 0.0 3.2 0.00 0.00 0.00 67 1011.2
20260507013505 11 13 0.0 3.2 0.00 0.00 0.00 67 1011.3
20260507013015 11 24 0.0 3.2 0.00 0.00 0.00 66 1011.4
20260507012507 11 36 0.0 3.2 0.00 0.00 0.00 67 1011.4
20260507012010 12 44 0.0 3.2 0.00 0.00 0.00 65 1011.5
20260507011527 12 31 1.6 3.2 0.00 0.00 0.00 64 1011.4
20260507011008 12 23 0.0 3.2 0.00 0.00 0.00 64 1011.5
20260507010510 12 352 0.0 3.2 0.00 0.00 0.00 63 1011.5
20260507010029 12 9 0.0 4.8 0.00 0.00 0.00 63 1011.6
20260507005507 12 19 0.0 4.8 0.00 0.00 0.00 61 1011.5
20260507005007 12 36 1.6 3.2 0.00 0.00 0.00 61 1011.6
20260507004518 12 47 0.0 3.2 0.00 0.00 0.00 61 1011.7
20260507004006 12 53 0.0 4.8 0.00 0.00 0.00 61 1011.7
20260507003507 12 39 1.6 4.8 0.00 0.00 0.00 62 1011.7
20260507003019 13 27 0.0 1.6 0.00 0.00 0.00 60 1011.7
20260507002506 13 69 0.0 3.2 0.00 0.00 0.00 60 1011.7
20260507002008 13 33 0.0 3.2 0.00 0.00 0.00 60 1011.8
20260507001516 13 32 0.0 3.2 0.00 0.00 0.00 59 1011.8
20260507001007 13 24 0.0 3.2 0.00 0.00 0.00 58 1011.7
20260507000512 13 57 0.0 3.2 0.00 0.00 0.00 58 1011.9
20260507000018 13 42 1.6 3.2 0.00 0.00 0.00 57 1012.0
20260506235506 13 360 0.0 1.6 0.00 0.00 0.00 55 1012.0
20260506235007 13 360 0.0 0.0 0.00 0.00 0.00 54 1012.0
20260506234519 13 360 0.0 0.0 0.00 0.00 0.00 54 1012.0
20260506234006 13 360 0.0 3.2 0.00 0.00 0.00 55 1012.1
20260506233506 13 360 0.0 3.2 0.00 0.00 0.00 55 1012.1
20260506233012 13 360 0.0 3.2 0.00 0.00 0.00 54 1012.1
20260506232506 13 360 0.0 3.2 0.00 0.00 0.00 52 1012.1
20260506232008 14 338 0.0 3.2 0.00 0.00 0.00 51 1012.1
20260506231525 14 262 0.0 3.2 0.00 0.00 0.00 51 1012.1
20260506231010 14 263 0.0 3.2 0.00 0.00 0.00 51 1012.1
20260506230506 15 246 1.6 3.2 0.00 0.00 0.00 51 1012.1
20260506230024 15 306 1.6 6.4 0.00 0.00 0.00 51 1012.1
20260506225511 15 5 3.2 6.4 0.00 0.00 0.00 51 1012.1
20260506225010 15 301 3.2 6.4 0.00 0.00 0.00 53 1012.2
20260506224520 15 279 1.6 3.2 0.00 0.00 0.00 53 1012.2
20260506224008 15 284 0.0 3.2 0.00 0.00 0.00 51 1012.2
20260506223513 15 292 1.6 3.2 0.00 0.00 0.00 51 1012.1
20260506223020 15 261 0.0 4.8 0.00 0.00 0.00 51 1012.1
20260506222509 15 253 1.6 4.8 0.00 0.00 0.00 51 1012.1
20260506222010 15 282 1.6 3.2 0.00 0.00 0.00 52 1012.2
20260506221516 15 274 1.6 4.8 0.00 0.00 0.00 52 1012.1
20260506221009 15 260 1.6 4.8 0.00 0.00 0.00 51 1012.1
20260506220507 15 306 1.6 4.8 0.00 0.00 0.00 51 1011.9
20260506220029 15 300 1.6 3.2 0.00 0.00 0.00 52 1012.0
20260506215508 15 283 0.0 3.2 0.00 0.00 0.00 53 1012.0
20260506215009 15 269 0.0 6.4 0.00 0.00 0.00 51 1012.0
20260506214521 15 228 3.2 6.4 0.00 0.00 0.00 52 1012.0
20260506214008 15 281 1.6 6.4 0.00 0.00 0.00 51 1012.0
20260506213511 15 261 0.0 4.8 0.00 0.00 0.00 51 1012.0
20260506213028 15 254 0.0 4.8 0.00 0.00 0.00 54 1011.9
20260506212508 15 229 3.2 6.4 0.00 0.00 0.00 51 1011.9
20260506212013 15 223 3.2 8.0 0.00 0.00 0.00 50 1011.9
20260506211527 15 205 1.6 9.7 0.00 0.00 0.00 51 1011.9
20260506211007 15 203 3.2 9.7 0.00 0.00 0.00 51 1011.8
20260506210508 15 200 3.2 8.0 0.00 0.00 0.00 51 1011.7
20260506210018 15 200 1.6 8.0 0.00 0.00 0.00 53 1011.7
20260506205507 15 208 3.2 8.0 0.00 0.00 0.00 52 1011.6
20260506205008 15 248 3.2 8.0 0.00 0.00 0.00 53 1011.5
20260506204531 15 259 1.6 6.4 0.00 0.00 0.00 53 1011.6
20260506204013 16 177 0.0 3.2 0.00 0.00 0.00 52 1011.4
20260506203508 16 202 0.0 4.8 0.00 0.00 0.00 52 1011.4
20260506203027 16 202 0.0 6.4 0.00 0.00 0.00 51 1011.3
20260506202509 16 209 0.0 9.7 0.00 0.00 0.00 52 1011.2
20260506202010 16 145 1.6 9.7 0.00 0.00 0.00 50 1011.1
20260506201527 16 190 1.6 6.4 0.00 0.00 0.00 50 1011.1
20260506201008 16 168 1.6 8.0 0.00 0.00 0.00 49 1011.1
20260506200505 16 173 3.2 8.0 0.00 0.00 0.00 50 1011.1
20260506200014 16 157 0.0 1.6 0.00 0.00 0.00 50 1011.0
20260506195506 16 109 0.0 6.4 0.00 0.00 0.00 49 1011.0
20260506195006 17 126 0.0 9.7 0.00 0.00 0.00 49 1010.9
20260506194519 17 200 4.8 9.7 0.00 0.00 0.00 48 1010.9
20260506194011 17 157 3.2 8.0 0.00 0.00 0.00 49 1010.8
20260506193509 17 157 0.0 3.2 0.00 0.00 0.00 48 1010.7
20260506193023 17 236 0.0 3.2 0.00 0.00 0.00 47 1010.7
20260506192506 17 294 0.0 6.4 0.00 0.00 0.00 47 1010.5
20260506192009 17 279 3.2 6.4 0.00 0.00 0.00 46 1010.5
20260506191511 18 195 1.6 6.4 0.00 0.00 0.00 43 1010.4
20260506191016 18 207 0.0 6.4 0.00 0.00 0.00 43 1010.3
20260506190508 18 209 0.0 3.2 0.00 0.00 0.00 40 1010.3
20260506190012 18 319 0.0 4.8 0.00 0.00 0.00 40 1010.1
20260506185505 18 268 0.0 4.8 0.00 0.00 0.00 40 1010.1
20260506185006 18 305 0.0 4.8 0.00 0.00 0.00 41 1010.1
20260506184519 18 269 1.6 6.4 0.00 0.00 0.00 40 1010.1
20260506184008 18 336 1.6 8.0 0.00 0.00 0.00 39 1010.1
20260506183508 18 320 3.2 11.3 0.00 0.00 0.00 38 1010.1
20260506183023 18 294 3.2 11.3 0.00 0.00 0.00 39 1010.1
20260506182506 18 293 1.6 8.0 0.00 0.00 0.00 39 1010.0
20260506182010 19 348 4.8 8.0 0.00 0.00 0.00 38 1010.1
20260506181528 19 325 3.2 8.0 0.00 0.00 0.00 38 1010.0
20260506181011 19 319 3.2 11.3 0.00 0.00 0.00 38 1010.1
20260506180510 19 5 3.2 11.3 0.00 0.00 0.00 38 1010.1
20260506180015 19 304 3.2 11.3 0.00 0.00 0.00 37 1010.1
20260506175506 19 286 4.8 11.3 0.00 0.00 0.00 37 1010.1
20260506175007 19 323 6.4 9.7 0.00 0.00 0.00 37 1010.1
20260506174515 20 347 3.2 12.9 0.00 0.00 0.00 37 1010.1
20260506174008 20 294 4.8 12.9 0.00 0.00 0.00 37 1010.0
20260506173507 20 279 8.0 12.9 0.00 0.00 0.00 36 1010.1
20260506173019 20 306 4.8 16.1 0.00 0.00 0.00 36 1010.1
20260506172508 20 296 6.4 17.7 0.00 0.00 0.00 37 1010.0
20260506172009 20 307 9.7 17.7 0.00 0.00 0.00 36 1010.0
20260506171535 20 295 4.8 16.1 0.00 0.00 0.00 35 1010.0
20260506171412 20 311 6.4 16.1 0.00 0.00 0.00 35 1010.0
20260506171407 20 311 8.0 19.3 0.00 0.00 0.00 35 1010.1
20260506171403 20 290 11.3 19.3 0.00 0.00 0.00 34 1010.0
20260506171358 20 276 11.3 20.9 0.00 0.00 0.00 34 1010.0
20260506171355 20 319 9.7 19.3 0.00 0.00 0.00 34 1009.9
20260506171350 21 265 6.4 14.5 0.00 0.00 0.00 34 1009.9